Location: Dackenheim
(49.5215°N, 8.1854°E)
Time: 18:25:09
(UTC+00:00)

CUBESAT XI-V - Visible Passes

Search period start: 07 March 2026 00:00
Search period end: 17 March 2026 00:00
Orbit: 643 x 664 km, 98.3° (Epoch: 7 March)

Date Brightness Start Highest point End Pass type
(mag) Time Alt. Az. Time Alt. Az. Time Alt. Az.
9 Mar ? 01:10:17 10° NNE 01:10:17 10° NNE 01:10:20 10° NNE visible
10 Mar ? 01:38:02 13° N 01:38:02 13° N 01:38:32 10° N visible
11 Mar ? 02:05:46 14° N 02:05:46 14° N 02:06:27 10° N visible
12 Mar ? 00:55:38 11° NNE 00:55:38 11° NNE 00:55:57 10° NNE visible
12 Mar ? 02:33:29 14° NNW 02:33:29 14° NNW 02:34:10 10° NNW visible
13 Mar ? 01:23:21 15° NNE 01:23:21 15° NNE 01:24:23 10° N visible
13 Mar ? 03:01:12 13° NNW 03:01:12 13° NNW 03:01:41 10° NNW visible
14 Mar ? 01:51:04 18° N 01:51:04 18° N 01:52:25 10° N visible
14 Mar ? 03:28:55 10° NW 03:28:55 10° NW 03:28:56 10° NW visible
15 Mar ? 00:40:55 10° NE 00:40:55 10° NE 00:41:05 10° NE visible
15 Mar ? 02:18:46 20° N 02:18:46 20° N 02:20:12 10° N visible
16 Mar ? 01:08:37 15° NNE 01:08:37 15° NNE 01:10:04 10° NNE visible
16 Mar ? 02:46:27 19° NNW 02:46:27 19° NNW 02:47:48 10° NNW visible
